Hartford, CT

8:19 PM EST on December 07, 2019 (GMT -0500)
Hartford-brainard

Weather History for KHFD - October, 2019

Change the Weather History Date:

Thursday, October 17, 2019

  Actual Average Record
Temperature  
Mean Temperature 55 °F -  
Max Temperature 59 °F 62 °F 87 °F (1938)
Min Temperature 50 °F 40 °F 26 °F (1937)
Degree Days  
Heating Degree Days 10    
Growing Degree Days 5 (Base 50)    
Moisture  
Dew Point 45 °F    
Average Humidity 74    
Maximum Humidity 93    
Minimum Humidity 59    
Precipitation  
Precipitation 0.23 in - - ()
Sea Level Pressure  
Sea Level Pressure 29.14 in    
Wind  
Wind Speed 12 mph ()    
Max Wind Speed 25 mph    
Max Gust Speed 43 mph    
Visibility 8.7 miles    
Events Rain    
Averages and records for this station are not official NWS values.
T = Trace of Precipitation, MM = Missing Value Source: Averaged Metar Reports

Daily Weather History Graph

Daily Weather History Graph

Search for Another Location

Airport or City:

Astronomy

Oct. 17, 2019 Rise Set
Actual Time 7:04 AM EDT 6:06 PM EDT
Civil Twilight 6:36 AM EDT 6:34 PM EDT
Nautical Twilight 6:04 AM EDT 7:06 PM EDT
Astronomical Twilight 5:32 AM EDT 7:38 PM EDT
Moon 8:33 PM EDT (10/17) 10:36 AM EDT (10/17)
Length of Visible Light 11h 57m
Length of Day
11h 01m
Waning Gibbous, 87% of the Moon is Illuminated
Oct 17
Waning Gibbous
Oct 21
Last Quarter
Oct 27
New
Nov 4
First Quarter
Nov 12
Full

Hourly Weather History & Observations

Time (EDT) Temp. Dew Point Humidity Pressure Visibility Wind Dir Wind Speed Gust Speed Precip Events Conditions
12:00 AM 57.9 °F 54.0 °F 87% 29.05 in 10.0 mi NE 10.4 mph 25.3 mph 0.00 in Rain Light Rain
12:53 AM 60.1 °F 54.0 °F 80% 29.02 in 10.0 mi NNE 10.4 mph - 0.00 in   Overcast
1:21 AM 57.9 °F 55.0 °F 90% 28.99 in 4.0 mi North 8.1 mph - 0.02 in Rain Light Rain
1:53 AM 57.0 °F 55.0 °F 93% 28.95 in 5.0 mi WNW 4.6 mph - 0.02 in Rain Light Rain
2:00 AM 57.0 °F 55.0 °F 93% 28.97 in 3.0 mi WSW 17.3 mph 23.0 mph 0.02 in Rain Light Rain
2:04 AM 57.0 °F 55.0 °F 93% 28.97 in 1.8 mi West 15.0 mph 23.0 mph 0.08 in Rain Rain
2:11 AM 55.0 °F 53.1 °F 93% 28.98 in 1.0 mi West 17.3 mph 34.5 mph 0.14 in Rain Heavy Rain
2:23 AM 54.0 °F 50.0 °F 86% 28.98 in 3.0 mi WNW 25.3 mph 42.6 mph 0.19 in Rain Rain
2:35 AM 54.0 °F 48.0 °F 80% 28.98 in 9.0 mi WNW 23.0 mph 38.0 mph 0.19 in Rain Light Rain
2:53 AM 53.1 °F 48.0 °F 83% 29.00 in 10.0 mi WNW 18.4 mph 35.7 mph 0.19 in   Overcast
3:53 AM 52.0 °F 44.1 °F 74% 29.02 in 10.0 mi West 17.3 mph 29.9 mph 0.00 in   Overcast
4:53 AM 51.1 °F 41.0 °F 68% 29.05 in 10.0 mi West 12.7 mph 31.1 mph N/A   Mostly Cloudy
5:53 AM 50.0 °F 39.0 °F 66% 29.07 in 10.0 mi West 18.4 mph 26.5 mph N/A   Partly Cloudy
6:32 AM 50.0 °F 42.1 °F 74% 29.09 in 10.0 mi WSW 10.4 mph - N/A   Mostly Cloudy
6:53 AM 50.0 °F 42.1 °F 74% 29.10 in 10.0 mi WSW 10.4 mph 19.6 mph N/A   Overcast
7:53 AM 50.0 °F 43.0 °F 77% 29.13 in 10.0 mi SW 6.9 mph - N/A   Overcast
8:32 AM 51.1 °F 41.0 °F 68% 29.14 in 10.0 mi WSW 11.5 mph 19.6 mph N/A   Overcast
8:53 AM 52.0 °F 39.9 °F 63% 29.14 in 10.0 mi SW 9.2 mph 18.4 mph N/A   Overcast
9:53 AM 53.1 °F 39.9 °F 61% 29.13 in 10.0 mi WSW 17.3 mph 27.6 mph N/A   Overcast
10:53 AM 54.0 °F 39.9 °F 59% 29.14 in 10.0 mi West 15.0 mph 27.6 mph N/A   Mostly Cloudy
11:53 AM 54.0 °F 39.9 °F 59% 29.14 in 10.0 mi WSW 15.0 mph 31.1 mph N/A   Mostly Cloudy
12:53 PM 54.0 °F 41.0 °F 62% 29.14 in 10.0 mi West 21.9 mph 29.9 mph N/A   Mostly Cloudy
1:53 PM 55.0 °F 42.1 °F 62% 29.16 in 10.0 mi WSW 20.7 mph 28.8 mph N/A   Overcast
2:53 PM 53.1 °F 45.0 °F 74% 29.21 in 10.0 mi West 16.1 mph 29.9 mph 0.00 in Rain Light Rain
3:53 PM 53.1 °F 45.0 °F 74% 29.25 in 10.0 mi WSW 10.4 mph 20.7 mph 0.01 in Rain Light Rain
4:53 PM 52.0 °F 45.0 °F 77% 29.28 in 10.0 mi WSW 10.4 mph 17.3 mph 0.01 in Rain Light Rain
5:53 PM 52.0 °F 45.0 °F 77% 29.31 in 10.0 mi West 10.4 mph - 0.00 in   Overcast
7:53 PM 53.1 °F 41.0 °F 64% 29.39 in 10.0 mi WNW 10.4 mph 21.9 mph N/A   Overcast
8:53 PM 53.1 °F 41.0 °F 64% 29.41 in 10.0 mi WNW 17.3 mph 27.6 mph N/A   Scattered Clouds
9:53 PM 54.0 °F 41.0 °F 62% 29.44 in 10.0 mi WNW 15.0 mph 23.0 mph N/A   Overcast
10:53 PM 54.0 °F 41.0 °F 62% 29.48 in 10.0 mi West 15.0 mph 25.3 mph N/A   Overcast
11:53 PM 54.0 °F 41.0 °F 62% 29.51 in 10.0 mi WNW 9.2 mph - N/A   Overcast